GFSGBSN_prec_pwat_057.txt.gz
Precipitable_Water
0.49 0.50 0.49 0.48 0.47 0.45 0.43 0.42 0.41 0.40 0.38 0.37 0.37 0.35 0.35 0.34 0.35 0.38 0.37 0.36 0.35 0.34 0.35 0.42 0.46 0.47 0.42 0.27 0.26 0.47 0.71 0.79 0.69 0.52 0.71 0.70 0.64 0.64 0.59 0.74 0.89 0.96 1.15 1.35 1.44 1.49 1.46
0.54 0.54 0.52 0.50 0.48 0.46 0.43 0.41 0.40 0.40 0.39 0.38 0.37 0.36 0.36 0.34 0.37 0.38 0.36 0.34 0.34 0.34 0.38 0.43 0.47 0.49 0.39 0.24 0.39 0.60 0.70 0.77 0.61 0.52 0.60 0.64 0.59 0.64 0.58 0.62 0.69 0.84 0.97 1.32 1.39 1.35 1.44
0.57 0.56 0.55 0.54 0.52 0.50 0.47 0.46 0.44 0.43 0.42 0.40 0.38 0.37 0.37 0.37 0.40 0.37 0.36 0.35 0.35 0.38 0.40 0.47 0.49 0.52 0.38 0.32 0.37 0.60 0.66 0.63 0.60 0.64 0.60 0.67 0.65 0.58 0.49 0.54 0.68 0.73 0.80 1.03 1.35 1.29 1.27
0.69 0.65 0.62 0.60 0.58 0.56 0.54 0.53 0.52 0.50 0.49 0.45 0.41 0.40 0.40 0.40 0.44 0.39 0.36 0.38 0.41 0.42 0.42 0.52 0.57 0.59 0.30 0.29 0.34 0.46 0.65 0.64 0.67 0.70 0.77 0.68 0.61 0.55 0.47 0.50 0.52 0.59 0.69 0.78 1.04 1.19 1.17
0.82 0.81 0.81 0.82 0.81 0.78 0.74 0.67 0.59 0.57 0.55 0.51 0.46 0.44 0.42 0.45 0.45 0.40 0.38 0.38 0.44 0.44 0.48 0.54 0.55 0.48 0.24 0.31 0.23 0.30 0.53 0.56 0.68 0.70 0.68 0.67 0.62 0.44 0.48 0.31 0.33 0.40 0.42 0.61 0.88 1.12 1.09
1.05 1.01 0.97 0.95 0.91 0.88 0.83 0.78 0.74 0.65 0.59 0.56 0.53 0.49 0.45 0.48 0.45 0.42 0.41 0.39 0.50 0.50 0.51 0.54 0.44 0.30 0.22 0.22 0.28 0.27 0.36 0.63 0.69 0.53 0.57 0.59 0.48 0.39 0.39 0.32 0.15 0.26 0.34 0.48 0.70 1.05 1.05
1.14 1.10 1.06 1.03 1.00 0.94 0.88 0.82 0.77 0.70 0.64 0.61 0.59 0.54 0.49 0.51 0.46 0.44 0.44 0.44 0.44 0.36 0.30 0.24 0.22 0.21 0.23 0.25 0.29 0.33 0.49 0.54 0.66 0.46 0.33 0.43 0.35 0.25 0.36 0.37 0.26 0.25 0.34 0.41 0.58 0.92 1.00
1.09 1.06 1.02 1.01 0.97 0.90 0.83 0.78 0.74 0.70 0.70 0.68 0.65 0.57 0.50 0.52 0.49 0.48 0.48 0.33 0.30 0.41 0.26 0.23 0.22 0.21 0.23 0.26 0.22 0.32 0.53 0.39 0.40 0.37 0.37 0.29 0.24 0.32 0.34 0.31 0.28 0.25 0.29 0.38 0.52 0.81 0.92
1.06 1.01 0.99 0.92 0.86 0.80 0.77 0.72 0.68 0.68 0.72 0.74 0.73 0.66 0.53 0.53 0.49 0.51 0.42 0.38 0.40 0.38 0.26 0.24 0.23 0.21 0.21 0.23 0.22 0.24 0.35 0.44 0.37 0.36 0.37 0.28 0.29 0.32 0.32 0.30 0.27 0.24 0.22 0.37 0.51 0.70 0.93
1.07 1.04 0.99 0.96 0.85 0.73 0.65 0.56 0.63 0.70 0.72 0.72 0.71 0.69 0.54 0.52 0.50 0.45 0.45 0.45 0.44 0.37 0.21 0.23 0.21 0.22 0.22 0.22 0.20 0.25 0.31 0.36 0.36 0.32 0.31 0.31 0.35 0.31 0.28 0.27 0.30 0.25 0.26 0.24 0.38 0.56 0.53
1.05 1.04 1.00 0.95 0.83 0.75 0.66 0.59 0.70 0.73 0.71 0.69 0.65 0.61 0.50 0.49 0.46 0.44 0.43 0.47 0.40 0.34 0.13 0.26 0.23 0.26 0.23 0.20 0.26 0.22 0.29 0.30 0.25 0.27 0.36 0.29 0.29 0.28 0.27 0.27 0.30 0.29 0.32 0.23 0.20 0.33 0.50
1.09 1.07 0.98 0.87 0.70 0.60 0.62 0.73 0.76 0.73 0.69 0.64 0.55 0.50 0.41 0.51 0.50 0.47 0.48 0.45 0.33 0.17 0.13 0.20 0.22 0.20 0.19 0.21 0.21 0.23 0.24 0.25 0.31 0.27 0.29 0.32 0.43 0.36 0.30 0.34 0.34 0.35 0.31 0.28 0.24 0.18 0.21
1.07 0.89 0.75 0.55 0.48 0.54 0.64 0.69 0.69 0.66 0.63 0.55 0.49 0.42 0.41 0.43 0.45 0.48 0.48 0.35 0.20 0.14 0.25 0.22 0.22 0.20 0.20 0.21 0.19 0.20 0.21 0.20 0.17 0.16 0.13 0.18 0.21 0.34 0.42 0.32 0.34 0.32 0.30 0.24 0.20 0.17 0.11
0.82 0.68 0.57 0.54 0.56 0.60 0.62 0.62 0.59 0.58 0.54 0.51 0.51 0.48 0.46 0.43 0.47 0.47 0.43 0.28 0.18 0.23 0.22 0.25 0.20 0.19 0.17 0.21 0.20 0.18 0.18 0.17 0.24 0.20 0.18 0.17 0.17 0.22 0.27 0.32 0.34 0.32 0.29 0.26 0.19 0.17 0.14
0.67 0.60 0.61 0.63 0.64 0.64 0.62 0.60 0.57 0.54 0.47 0.52 0.50 0.51 0.50 0.49 0.49 0.46 0.37 0.23 0.24 0.27 0.25 0.19 0.19 0.16 0.17 0.19 0.16 0.18 0.17 0.18 0.24 0.27 0.17 0.16 0.15 0.33 0.32 0.30 0.34 0.33 0.32 0.31 0.28 0.29 0.22
0.62 0.64 0.65 0.68 0.67 0.64 0.62 0.61 0.56 0.50 0.53 0.56 0.49 0.46 0.45 0.50 0.47 0.41 0.30 0.27 0.29 0.28 0.23 0.22 0.17 0.21 0.19 0.21 0.19 0.19 0.21 0.25 0.27 0.29 0.27 0.22 0.19 0.28 0.27 0.34 0.35 0.34 0.41 0.30 0.28 0.24 0.21
0.65 0.66 0.69 0.71 0.70 0.68 0.65 0.60 0.54 0.50 0.56 0.60 0.53 0.46 0.52 0.60 0.52 0.40 0.32 0.35 0.32 0.31 0.33 0.28 0.25 0.24 0.24 0.24 0.25 0.23 0.25 0.27 0.30 0.31 0.26 0.24 0.23 0.21 0.26 0.29 0.24 0.28 0.28 0.40 0.41 0.29 0.24
0.67 0.68 0.72 0.75 0.75 0.73 0.70 0.65 0.65 0.65 0.66 0.67 0.55 0.41 0.61 0.64 0.43 0.43 0.39 0.40 0.42 0.39 0.41 0.38 0.36 0.34 0.32 0.32 0.31 0.30 0.28 0.30 0.35 0.34 0.25 0.25 0.21 0.17 0.19 0.29 0.30 0.27 0.25 0.25 0.36 0.35 0.30
0.68 0.72 0.77 0.79 0.80 0.79 0.80 0.77 0.76 0.77 0.78 0.70 0.52 0.51 0.65 0.62 0.43 0.42 0.44 0.41 0.41 0.40 0.41 0.40 0.38 0.39 0.39 0.35 0.32 0.34 0.34 0.38 0.39 0.33 0.27 0.30 0.22 0.16 0.17 0.21 0.25 0.24 0.27 0.37 0.32 0.36 0.36
0.71 0.77 0.81 0.83 0.85 0.84 0.83 0.81 0.81 0.81 0.81 0.75 0.56 0.48 0.52 0.51 0.48 0.41 0.39 0.37 0.36 0.42 0.39 0.40 0.38 0.39 0.36 0.34 0.36 0.33 0.34 0.37 0.42 0.38 0.39 0.36 0.28 0.23 0.17 0.23 0.27 0.23 0.28 0.34 0.36 0.33 0.32
0.73 0.80 0.84 0.86 0.87 0.87 0.85 0.83 0.80 0.78 0.78 0.74 0.55 0.43 0.47 0.37 0.38 0.40 0.40 0.37 0.33 0.33 0.38 0.38 0.35 0.34 0.34 0.29 0.30 0.34 0.36 0.35 0.41 0.42 0.38 0.34 0.24 0.24 0.24 0.28 0.26 0.24 0.29 0.33 0.39 0.44 0.42
0.71 0.77 0.84 0.87 0.87 0.88 0.86 0.84 0.80 0.77 0.78 0.63 0.50 0.46 0.46 0.42 0.42 0.39 0.38 0.36 0.34 0.33 0.35 0.31 0.31 0.35 0.36 0.32 0.34 0.33 0.41 0.43 0.38 0.42 0.39 0.38 0.31 0.30 0.26 0.27 0.25 0.23 0.22 0.25 0.30 0.33 0.41
0.69 0.74 0.83 0.87 0.87 0.87 0.87 0.86 0.81 0.79 0.80 0.59 0.59 0.58 0.51 0.40 0.37 0.36 0.34 0.34 0.35 0.40 0.39 0.40 0.38 0.35 0.33 0.36 0.41 0.42 0.44 0.45 0.47 0.42 0.40 0.40 0.36 0.34 0.24 0.25 0.23 0.18 0.19 0.18 0.18 0.22 0.24
0.73 0.79 0.85 0.87 0.87 0.88 0.86 0.84 0.80 0.77 0.79 0.68 0.63 0.60 0.47 0.34 0.36 0.36 0.38 0.37 0.36 0.38 0.37 0.41 0.43 0.39 0.46 0.52 0.48 0.43 0.41 0.40 0.43 0.41 0.41 0.38 0.38 0.38 0.31 0.30 0.20 0.22 0.20 0.20 0.19 0.21 0.28
0.76 0.83 0.86 0.86 0.85 0.85 0.86 0.84 0.81 0.79 0.85 0.75 0.73 0.61 0.51 0.36 0.39 0.37 0.37 0.37 0.39 0.42 0.39 0.40 0.47 0.54 0.59 0.52 0.42 0.36 0.35 0.36 0.37 0.39 0.37 0.36 0.34 0.30 0.27 0.25 0.25 0.23 0.29 0.40 0.36 0.24 0.35
0.76 0.84 0.85 0.85 0.82 0.83 0.84 0.83 0.83 0.82 0.87 0.82 0.75 0.77 0.62 0.48 0.37 0.43 0.41 0.42 0.37 0.38 0.42 0.45 0.54 0.61 0.60 0.48 0.43 0.31 0.28 0.36 0.32 0.36 0.41 0.41 0.36 0.33 0.27 0.22 0.20 0.24 0.49 0.45 0.48 0.25 0.41
0.72 0.78 0.82 0.81 0.80 0.80 0.81 0.83 0.83 0.83 0.85 0.83 0.76 0.85 0.69 0.54 0.54 0.53 0.44 0.44 0.49 0.45 0.42 0.48 0.52 0.53 0.58 0.45 0.36 0.34 0.33 0.39 0.29 0.28 0.31 0.33 0.35 0.28 0.25 0.25 0.25 0.43 0.46 0.42 0.26 0.36 0.63
0.71 0.73 0.79 0.80 0.77 0.78 0.79 0.81 0.83 0.84 0.84 0.84 0.74 0.85 0.74 0.62 0.62 0.64 0.61 0.53 0.54 0.49 0.41 0.50 0.53 0.54 0.49 0.40 0.38 0.38 0.35 0.37 0.34 0.34 0.32 0.34 0.29 0.29 0.30 0.28 0.21 0.51 0.42 0.30 0.45 0.62 0.66
0.72 0.71 0.74 0.79 0.76 0.77 0.79 0.81 0.83 0.84 0.82 0.86 0.74 0.81 0.85 0.68 0.63 0.77 0.75 0.71 0.67 0.64 0.54 0.54 0.54 0.54 0.56 0.45 0.45 0.43 0.38 0.41 0.38 0.32 0.39 0.31 0.38 0.31 0.31 0.29 0.46 0.50 0.46 0.59 0.61 0.66 0.64

GFSGBSN_prec_pwat_060.txt.gz
Precipitable_Water
0.55 0.55 0.54 0.53 0.51 0.48 0.45 0.44 0.43 0.42 0.40 0.38 0.37 0.37 0.37 0.36 0.35 0.39 0.37 0.37 0.35 0.34 0.35 0.38 0.45 0.47 0.41 0.25 0.40 0.55 0.68 0.66 0.61 0.45 0.70 0.81 0.74 0.76 0.69 0.79 0.91 0.92 1.08 1.20 1.35 1.42 1.40
0.60 0.57 0.55 0.54 0.52 0.51 0.50 0.49 0.48 0.47 0.45 0.42 0.40 0.40 0.39 0.38 0.38 0.41 0.38 0.35 0.35 0.36 0.37 0.43 0.47 0.50 0.31 0.30 0.41 0.57 0.64 0.78 0.55 0.45 0.65 0.85 0.73 0.74 0.67 0.69 0.68 0.88 0.89 1.10 1.30 1.39 1.43
0.77 0.75 0.74 0.74 0.75 0.74 0.71 0.67 0.62 0.55 0.52 0.47 0.46 0.45 0.44 0.40 0.41 0.42 0.38 0.36 0.36 0.41 0.40 0.47 0.51 0.48 0.44 0.43 0.43 0.52 0.59 0.73 0.62 0.44 0.55 0.86 0.77 0.65 0.65 0.57 0.65 0.64 0.72 0.90 1.13 1.27 1.41
1.04 0.99 0.95 0.91 0.90 0.88 0.84 0.81 0.78 0.74 0.67 0.56 0.53 0.52 0.50 0.45 0.46 0.43 0.40 0.38 0.36 0.42 0.40 0.50 0.60 0.63 0.45 0.33 0.31 0.42 0.63 0.59 0.62 0.49 0.59 0.70 0.72 0.61 0.56 0.53 0.51 0.51 0.62 0.59 0.94 1.19 1.23
1.13 1.10 1.05 1.04 1.01 0.96 0.92 0.86 0.81 0.77 0.73 0.67 0.60 0.59 0.56 0.49 0.49 0.45 0.41 0.39 0.36 0.43 0.48 0.54 0.58 0.61 0.45 0.32 0.24 0.35 0.60 0.55 0.56 0.61 0.74 0.81 0.66 0.54 0.47 0.41 0.35 0.41 0.40 0.53 0.72 1.13 1.17
1.09 1.04 1.00 0.96 0.95 0.92 0.86 0.82 0.79 0.76 0.78 0.77 0.68 0.63 0.60 0.53 0.52 0.48 0.47 0.48 0.43 0.45 0.53 0.54 0.47 0.35 0.33 0.24 0.27 0.25 0.33 0.60 0.61 0.53 0.55 0.58 0.51 0.41 0.39 0.35 0.22 0.27 0.35 0.43 0.56 0.99 1.03
1.07 1.00 0.97 0.95 0.91 0.85 0.72 0.66 0.65 0.69 0.76 0.78 0.75 0.70 0.64 0.56 0.53 0.53 0.51 0.47 0.48 0.53 0.38 0.32 0.34 0.29 0.28 0.30 0.28 0.30 0.34 0.52 0.67 0.52 0.42 0.49 0.42 0.32 0.36 0.35 0.37 0.30 0.30 0.33 0.42 0.80 0.90
1.08 1.01 0.96 0.94 0.91 0.83 0.74 0.68 0.57 0.58 0.68 0.73 0.73 0.70 0.68 0.57 0.53 0.54 0.54 0.42 0.36 0.47 0.30 0.27 0.23 0.21 0.23 0.25 0.24 0.38 0.51 0.43 0.52 0.39 0.38 0.42 0.34 0.41 0.35 0.41 0.38 0.35 0.30 0.27 0.40 0.68 0.87
1.09 1.01 0.96 0.94 0.88 0.78 0.70 0.65 0.64 0.67 0.67 0.68 0.68 0.64 0.62 0.55 0.51 0.53 0.48 0.42 0.43 0.39 0.24 0.32 0.23 0.22 0.22 0.22 0.24 0.30 0.43 0.44 0.42 0.37 0.38 0.29 0.29 0.34 0.35 0.32 0.31 0.27 0.25 0.27 0.37 0.57 0.81
1.09 1.05 0.98 0.87 0.77 0.59 0.52 0.61 0.71 0.73 0.72 0.69 0.67 0.60 0.57 0.49 0.54 0.54 0.52 0.47 0.46 0.40 0.23 0.27 0.24 0.22 0.22 0.21 0.20 0.26 0.29 0.39 0.39 0.36 0.35 0.37 0.37 0.34 0.29 0.29 0.32 0.25 0.28 0.25 0.30 0.45 0.46
0.99 0.91 0.75 0.62 0.47 0.45 0.52 0.60 0.63 0.65 0.67 0.66 0.61 0.53 0.51 0.45 0.43 0.50 0.55 0.48 0.44 0.35 0.19 0.30 0.27 0.30 0.26 0.20 0.28 0.25 0.27 0.29 0.29 0.34 0.36 0.30 0.38 0.34 0.31 0.29 0.32 0.29 0.35 0.29 0.24 0.26 0.40
0.83 0.71 0.57 0.55 0.54 0.57 0.60 0.61 0.60 0.58 0.55 0.53 0.50 0.50 0.44 0.44 0.52 0.50 0.48 0.49 0.37 0.23 0.17 0.25 0.27 0.22 0.21 0.21 0.23 0.27 0.26 0.25 0.32 0.30 0.32 0.30 0.41 0.34 0.32 0.35 0.33 0.33 0.30 0.32 0.29 0.22 0.15
0.65 0.60 0.58 0.58 0.60 0.63 0.63 0.60 0.58 0.55 0.52 0.45 0.48 0.43 0.39 0.48 0.51 0.52 0.47 0.42 0.25 0.19 0.27 0.25 0.23 0.22 0.21 0.23 0.21 0.20 0.22 0.20 0.16 0.15 0.13 0.17 0.26 0.38 0.41 0.31 0.32 0.32 0.28 0.22 0.20 0.19 0.13
0.61 0.62 0.63 0.64 0.66 0.64 0.61 0.59 0.57 0.53 0.46 0.48 0.48 0.43 0.48 0.45 0.51 0.47 0.44 0.34 0.21 0.27 0.24 0.28 0.25 0.23 0.21 0.22 0.22 0.22 0.19 0.18 0.22 0.22 0.21 0.22 0.18 0.17 0.25 0.34 0.32 0.30 0.29 0.24 0.18 0.18 0.16
0.64 0.65 0.67 0.69 0.69 0.67 0.64 0.59 0.55 0.48 0.48 0.51 0.52 0.55 0.54 0.55 0.49 0.45 0.39 0.26 0.27 0.30 0.29 0.26 0.25 0.19 0.18 0.21 0.19 0.23 0.20 0.18 0.22 0.32 0.23 0.16 0.16 0.27 0.30 0.27 0.29 0.32 0.31 0.29 0.26 0.28 0.23
0.66 0.66 0.70 0.72 0.73 0.72 0.69 0.63 0.56 0.51 0.53 0.56 0.48 0.52 0.49 0.53 0.46 0.40 0.34 0.35 0.38 0.36 0.32 0.27 0.19 0.22 0.21 0.21 0.22 0.21 0.19 0.27 0.24 0.32 0.33 0.23 0.16 0.24 0.28 0.33 0.32 0.28 0.35 0.32 0.29 0.20 0.19
0.68 0.70 0.74 0.77 0.78 0.77 0.77 0.74 0.71 0.68 0.67 0.67 0.62 0.53 0.59 0.62 0.49 0.39 0.39 0.41 0.37 0.35 0.33 0.28 0.24 0.25 0.26 0.24 0.27 0.25 0.27 0.30 0.31 0.31 0.33 0.25 0.20 0.16 0.26 0.28 0.27 0.29 0.27 0.31 0.37 0.34 0.21
0.70 0.74 0.78 0.79 0.81 0.81 0.81 0.78 0.77 0.76 0.74 0.70 0.64 0.49 0.67 0.64 0.48 0.47 0.45 0.45 0.46 0.42 0.43 0.39 0.36 0.33 0.31 0.32 0.30 0.31 0.30 0.32 0.36 0.34 0.29 0.30 0.22 0.17 0.18 0.27 0.31 0.33 0.30 0.28 0.30 0.31 0.35
0.69 0.73 0.79 0.82 0.83 0.83 0.81 0.78 0.76 0.75 0.78 0.70 0.58 0.54 0.61 0.63 0.47 0.49 0.46 0.41 0.41 0.40 0.40 0.38 0.36 0.37 0.37 0.33 0.30 0.33 0.36 0.42 0.39 0.36 0.32 0.31 0.22 0.16 0.16 0.19 0.22 0.25 0.26 0.30 0.29 0.29 0.32
0.67 0.70 0.77 0.83 0.84 0.83 0.81 0.77 0.74 0.73 0.76 0.72 0.60 0.48 0.54 0.48 0.47 0.41 0.40 0.39 0.38 0.39 0.38 0.37 0.35 0.35 0.32 0.30 0.32 0.28 0.31 0.36 0.39 0.38 0.40 0.35 0.27 0.25 0.19 0.19 0.26 0.25 0.25 0.26 0.27 0.23 0.23
0.68 0.73 0.78 0.83 0.83 0.82 0.81 0.77 0.73 0.72 0.78 0.75 0.53 0.39 0.45 0.36 0.39 0.40 0.41 0.39 0.34 0.33 0.37 0.37 0.33 0.31 0.31 0.27 0.29 0.28 0.32 0.37 0.40 0.40 0.37 0.33 0.24 0.28 0.25 0.24 0.25 0.24 0.24 0.25 0.24 0.28 0.26
0.71 0.77 0.82 0.83 0.83 0.82 0.80 0.76 0.74 0.76 0.77 0.62 0.47 0.49 0.49 0.39 0.40 0.41 0.37 0.34 0.31 0.33 0.33 0.35 0.33 0.36 0.34 0.30 0.34 0.31 0.35 0.35 0.35 0.43 0.42 0.41 0.27 0.30 0.28 0.30 0.28 0.23 0.24 0.23 0.25 0.26 0.31
0.76 0.80 0.83 0.83 0.83 0.82 0.79 0.75 0.74 0.77 0.80 0.59 0.61 0.61 0.49 0.38 0.36 0.34 0.31 0.32 0.33 0.36 0.39 0.39 0.36 0.34 0.33 0.39 0.42 0.41 0.40 0.38 0.38 0.40 0.39 0.40 0.37 0.36 0.26 0.33 0.34 0.25 0.24 0.23 0.23 0.25 0.31
0.76 0.82 0.83 0.81 0.81 0.80 0.77 0.74 0.75 0.79 0.80 0.70 0.63 0.61 0.43 0.31 0.33 0.33 0.35 0.36 0.35 0.36 0.34 0.40 0.40 0.37 0.45 0.53 0.51 0.47 0.43 0.38 0.36 0.36 0.39 0.35 0.34 0.36 0.31 0.35 0.25 0.30 0.32 0.27 0.25 0.25 0.25
0.70 0.79 0.81 0.79 0.79 0.77 0.75 0.75 0.76 0.79 0.80 0.70 0.68 0.61 0.54 0.36 0.38 0.39 0.38 0.37 0.41 0.43 0.41 0.41 0.46 0.51 0.55 0.50 0.42 0.36 0.35 0.38 0.38 0.38 0.36 0.39 0.38 0.32 0.27 0.28 0.31 0.32 0.31 0.41 0.40 0.27 0.29
0.70 0.75 0.78 0.77 0.77 0.74 0.74 0.75 0.75 0.77 0.80 0.75 0.72 0.76 0.65 0.48 0.43 0.50 0.47 0.46 0.39 0.38 0.43 0.45 0.55 0.60 0.55 0.46 0.42 0.31 0.28 0.34 0.35 0.39 0.47 0.42 0.37 0.30 0.30 0.23 0.20 0.27 0.48 0.50 0.45 0.26 0.46
0.70 0.73 0.76 0.76 0.75 0.73 0.74 0.75 0.77 0.79 0.81 0.80 0.71 0.83 0.73 0.55 0.56 0.53 0.44 0.44 0.51 0.46 0.41 0.44 0.50 0.52 0.55 0.42 0.37 0.34 0.32 0.40 0.27 0.27 0.32 0.38 0.37 0.28 0.29 0.26 0.28 0.44 0.49 0.51 0.30 0.29 0.47
0.70 0.72 0.72 0.76 0.72 0.73 0.74 0.75 0.77 0.76 0.80 0.82 0.74 0.80 0.74 0.64 0.60 0.65 0.63 0.54 0.53 0.50 0.40 0.45 0.47 0.52 0.48 0.39 0.37 0.36 0.34 0.37 0.33 0.36 0.33 0.33 0.34 0.34 0.32 0.26 0.22 0.49 0.44 0.39 0.50 0.55 0.52
0.69 0.72 0.69 0.74 0.71 0.72 0.75 0.76 0.76 0.75 0.78 0.83 0.75 0.84 0.83 0.69 0.69 0.83 0.79 0.70 0.65 0.59 0.51 0.51 0.47 0.48 0.52 0.44 0.43 0.42 0.37 0.40 0.37 0.29 0.42 0.36 0.42 0.38 0.32 0.33 0.49 0.57 0.53 0.57 0.57 0.50 0.47

GFSGBSN_prec_pwat_063.txt.gz
Precipitable_Water
0.72 0.69 0.65 0.63 0.61 0.60 0.60 0.59 0.57 0.53 0.48 0.45 0.43 0.43 0.43 0.41 0.39 0.40 0.42 0.39 0.36 0.35 0.39 0.39 0.42 0.46 0.39 0.24 0.37 0.55 0.61 0.64 0.53 0.37 0.34 0.63 0.68 0.76 0.74 0.84 0.96 0.96 1.04 1.21 1.33 1.43 1.55
1.01 0.96 0.92 0.89 0.89 0.89 0.85 0.82 0.81 0.78 0.72 0.61 0.53 0.51 0.48 0.45 0.43 0.44 0.44 0.39 0.37 0.35 0.42 0.43 0.47 0.49 0.28 0.20 0.41 0.58 0.68 0.62 0.48 0.38 0.55 0.72 0.74 0.82 0.78 0.80 0.79 0.88 0.94 1.04 1.23 1.41 1.48
1.11 1.08 1.06 1.01 1.00 0.97 0.93 0.90 0.86 0.82 0.78 0.75 0.70 0.61 0.58 0.53 0.47 0.46 0.45 0.41 0.38 0.36 0.43 0.45 0.53 0.46 0.36 0.40 0.45 0.50 0.61 0.61 0.53 0.43 0.55 0.79 0.91 0.83 0.75 0.69 0.77 0.67 0.65 0.78 1.13 1.23 1.32
1.13 1.07 1.01 0.97 0.94 0.89 0.86 0.83 0.78 0.74 0.75 0.75 0.76 0.73 0.64 0.60 0.54 0.50 0.46 0.42 0.39 0.36 0.45 0.48 0.60 0.59 0.44 0.46 0.35 0.35 0.58 0.63 0.65 0.51 0.56 0.86 0.92 0.78 0.63 0.68 0.61 0.52 0.54 0.54 0.80 1.09 1.31
1.07 1.02 0.99 0.93 0.90 0.88 0.83 0.74 0.66 0.61 0.64 0.74 0.77 0.77 0.71 0.65 0.57 0.54 0.49 0.43 0.42 0.38 0.47 0.55 0.55 0.62 0.44 0.41 0.24 0.31 0.57 0.51 0.59 0.54 0.46 0.62 0.64 0.58 0.55 0.45 0.42 0.44 0.35 0.43 0.62 0.94 1.16
1.06 1.02 0.98 0.93 0.88 0.86 0.78 0.71 0.68 0.63 0.62 0.63 0.71 0.74 0.73 0.68 0.59 0.57 0.55 0.46 0.48 0.42 0.53 0.57 0.49 0.36 0.44 0.28 0.27 0.25 0.47 0.58 0.49 0.46 0.50 0.54 0.59 0.48 0.44 0.34 0.23 0.29 0.34 0.40 0.47 0.73 1.01
1.07 1.05 0.99 0.94 0.89 0.80 0.72 0.67 0.63 0.68 0.68 0.66 0.63 0.67 0.69 0.66 0.58 0.60 0.58 0.49 0.51 0.51 0.36 0.45 0.41 0.35 0.29 0.30 0.30 0.27 0.31 0.52 0.56 0.47 0.37 0.48 0.43 0.33 0.34 0.35 0.33 0.36 0.37 0.35 0.40 0.50 0.74
1.03 0.99 0.95 0.85 0.73 0.60 0.45 0.44 0.55 0.65 0.68 0.69 0.65 0.62 0.63 0.60 0.55 0.55 0.60 0.49 0.42 0.46 0.37 0.33 0.36 0.29 0.26 0.25 0.24 0.33 0.40 0.39 0.51 0.39 0.45 0.41 0.31 0.41 0.44 0.43 0.37 0.34 0.33 0.34 0.37 0.38 0.73
0.95 0.88 0.73 0.60 0.50 0.45 0.47 0.54 0.58 0.59 0.60 0.62 0.63 0.62 0.57 0.54 0.46 0.52 0.52 0.50 0.49 0.45 0.30 0.25 0.32 0.22 0.21 0.20 0.24 0.33 0.43 0.44 0.45 0.46 0.37 0.32 0.37 0.43 0.42 0.37 0.33 0.33 0.33 0.31 0.32 0.38 0.89
0.82 0.71 0.59 0.55 0.55 0.56 0.58 0.59 0.58 0.56 0.55 0.53 0.51 0.52 0.54 0.51 0.44 0.52 0.54 0.58 0.51 0.44 0.23 0.27 0.27 0.24 0.25 0.20 0.21 0.33 0.39 0.38 0.42 0.40 0.40 0.38 0.36 0.37 0.38 0.32 0.34 0.28 0.34 0.30 0.29 0.31 0.38
0.65 0.61 0.60 0.61 0.61 0.62 0.61 0.59 0.57 0.56 0.53 0.50 0.46 0.45 0.45 0.48 0.45 0.45 0.50 0.51 0.46 0.37 0.21 0.32 0.29 0.31 0.26 0.21 0.24 0.24 0.27 0.29 0.31 0.36 0.39 0.33 0.32 0.35 0.33 0.32 0.32 0.28 0.35 0.32 0.31 0.30 0.29
0.64 0.64 0.64 0.66 0.67 0.66 0.63 0.59 0.56 0.54 0.50 0.44 0.45 0.47 0.40 0.43 0.55 0.52 0.53 0.48 0.39 0.24 0.21 0.28 0.31 0.26 0.23 0.24 0.25 0.30 0.28 0.27 0.29 0.29 0.33 0.32 0.40 0.38 0.38 0.39 0.37 0.33 0.31 0.31 0.30 0.29 0.22
0.66 0.65 0.67 0.70 0.70 0.67 0.63 0.58 0.53 0.50 0.44 0.46 0.48 0.44 0.36 0.46 0.48 0.52 0.46 0.42 0.24 0.22 0.30 0.25 0.25 0.25 0.23 0.21 0.23 0.23 0.23 0.21 0.17 0.14 0.19 0.22 0.27 0.35 0.37 0.33 0.33 0.33 0.27 0.20 0.19 0.19 0.16
0.67 0.68 0.71 0.74 0.73 0.71 0.70 0.65 0.57 0.50 0.47 0.50 0.50 0.52 0.49 0.41 0.48 0.50 0.45 0.37 0.27 0.32 0.27 0.30 0.27 0.25 0.23 0.27 0.26 0.25 0.22 0.22 0.25 0.23 0.19 0.18 0.15 0.21 0.35 0.34 0.33 0.30 0.28 0.21 0.15 0.15 0.19
0.69 0.71 0.73 0.75 0.76 0.76 0.75 0.73 0.71 0.66 0.58 0.54 0.53 0.57 0.55 0.50 0.50 0.46 0.41 0.34 0.34 0.32 0.31 0.27 0.26 0.24 0.23 0.25 0.25 0.25 0.22 0.20 0.25 0.29 0.21 0.20 0.19 0.26 0.25 0.28 0.28 0.31 0.28 0.29 0.24 0.23 0.23
0.69 0.72 0.76 0.79 0.79 0.78 0.77 0.76 0.75 0.73 0.69 0.68 0.59 0.58 0.55 0.59 0.49 0.40 0.46 0.41 0.39 0.43 0.38 0.32 0.25 0.26 0.25 0.26 0.23 0.25 0.22 0.29 0.30 0.32 0.33 0.29 0.18 0.26 0.26 0.29 0.26 0.23 0.29 0.29 0.28 0.18 0.17
0.67 0.67 0.73 0.80 0.80 0.79 0.77 0.75 0.74 0.74 0.74 0.78 0.74 0.60 0.62 0.61 0.57 0.50 0.44 0.49 0.43 0.45 0.43 0.36 0.31 0.27 0.27 0.31 0.31 0.29 0.31 0.34 0.33 0.32 0.33 0.29 0.24 0.18 0.25 0.26 0.27 0.28 0.24 0.28 0.30 0.28 0.23
0.65 0.67 0.73 0.80 0.80 0.79 0.76 0.74 0.71 0.70 0.74 0.76 0.70 0.50 0.60 0.68 0.51 0.56 0.47 0.48 0.49 0.44 0.45 0.40 0.36 0.32 0.27 0.31 0.30 0.31 0.31 0.33 0.37 0.34 0.29 0.31 0.24 0.18 0.15 0.24 0.31 0.29 0.27 0.28 0.25 0.24 0.28
0.66 0.71 0.76 0.80 0.80 0.79 0.76 0.73 0.71 0.71 0.79 0.71 0.57 0.55 0.59 0.65 0.43 0.46 0.47 0.43 0.43 0.39 0.40 0.37 0.37 0.38 0.38 0.31 0.27 0.32 0.34 0.39 0.37 0.34 0.32 0.32 0.25 0.19 0.17 0.14 0.25 0.27 0.28 0.29 0.31 0.30 0.26
0.70 0.75 0.80 0.81 0.80 0.78 0.76 0.73 0.71 0.75 0.80 0.73 0.57 0.42 0.50 0.49 0.50 0.44 0.41 0.39 0.35 0.40 0.37 0.36 0.36 0.36 0.32 0.30 0.32 0.28 0.29 0.34 0.37 0.36 0.36 0.33 0.26 0.24 0.19 0.20 0.25 0.26 0.26 0.27 0.26 0.23 0.23
0.72 0.79 0.81 0.80 0.80 0.77 0.73 0.72 0.74 0.75 0.78 0.71 0.57 0.41 0.46 0.33 0.36 0.39 0.41 0.38 0.33 0.32 0.37 0.36 0.34 0.31 0.28 0.25 0.28 0.28 0.31 0.33 0.37 0.40 0.37 0.31 0.21 0.22 0.21 0.24 0.26 0.25 0.25 0.25 0.24 0.23 0.21
0.70 0.80 0.79 0.78 0.78 0.75 0.71 0.72 0.75 0.79 0.78 0.58 0.45 0.47 0.51 0.38 0.41 0.37 0.36 0.32 0.30 0.31 0.32 0.30 0.30 0.33 0.29 0.27 0.29 0.27 0.34 0.35 0.32 0.37 0.38 0.40 0.26 0.27 0.22 0.25 0.27 0.25 0.28 0.27 0.25 0.24 0.23
0.66 0.77 0.79 0.77 0.76 0.72 0.69 0.72 0.76 0.76 0.71 0.52 0.57 0.57 0.41 0.34 0.35 0.32 0.31 0.32 0.32 0.33 0.37 0.36 0.32 0.28 0.29 0.34 0.38 0.38 0.38 0.39 0.37 0.32 0.33 0.36 0.35 0.32 0.21 0.28 0.30 0.26 0.26 0.28 0.27 0.25 0.23
0.67 0.71 0.77 0.75 0.74 0.69 0.69 0.73 0.77 0.78 0.71 0.65 0.61 0.59 0.43 0.32 0.35 0.32 0.35 0.35 0.33 0.32 0.30 0.39 0.40 0.37 0.43 0.49 0.47 0.44 0.41 0.39 0.38 0.34 0.34 0.30 0.33 0.34 0.25 0.28 0.20 0.25 0.40 0.40 0.34 0.33 0.31
0.67 0.70 0.74 0.74 0.72 0.69 0.70 0.73 0.77 0.78 0.73 0.66 0.70 0.63 0.53 0.35 0.41 0.40 0.40 0.39 0.40 0.43 0.41 0.39 0.43 0.50 0.54 0.46 0.36 0.30 0.33 0.38 0.41 0.43 0.38 0.38 0.32 0.28 0.25 0.24 0.26 0.26 0.33 0.41 0.39 0.35 0.48
0.68 0.70 0.71 0.74 0.70 0.68 0.70 0.72 0.77 0.80 0.77 0.72 0.69 0.78 0.65 0.45 0.41 0.49 0.46 0.46 0.40 0.39 0.42 0.42 0.50 0.55 0.54 0.43 0.37 0.28 0.27 0.33 0.32 0.33 0.40 0.41 0.41 0.36 0.34 0.24 0.20 0.26 0.40 0.49 0.48 0.31 0.50
0.68 0.70 0.69 0.73 0.70 0.69 0.70 0.72 0.74 0.78 0.80 0.75 0.68 0.78 0.70 0.52 0.56 0.52 0.42 0.41 0.48 0.44 0.37 0.40 0.44 0.45 0.52 0.40 0.33 0.32 0.31 0.39 0.27 0.25 0.29 0.31 0.37 0.30 0.31 0.30 0.28 0.39 0.43 0.49 0.30 0.33 0.54
0.68 0.70 0.68 0.69 0.69 0.70 0.70 0.72 0.73 0.76 0.80 0.79 0.77 0.79 0.64 0.58 0.62 0.70 0.62 0.50 0.50 0.45 0.37 0.42 0.44 0.43 0.41 0.35 0.33 0.33 0.32 0.35 0.33 0.35 0.35 0.35 0.33 0.32 0.32 0.31 0.25 0.51 0.46 0.37 0.48 0.55 0.55
0.67 0.70 0.67 0.65 0.73 0.68 0.71 0.73 0.72 0.72 0.71 0.73 0.69 0.84 0.81 0.65 0.64 0.74 0.69 0.69 0.61 0.55 0.49 0.49 0.43 0.43 0.42 0.39 0.40 0.39 0.34 0.38 0.36 0.28 0.41 0.35 0.40 0.36 0.41 0.39 0.54 0.59 0.54 0.59 0.57 0.52 0.52

GFSGBSN_prec_pwat_069.txt.gz
Precipitable_Water
1.06 1.03 0.99 0.95 0.92 0.89 0.84 0.80 0.78 0.73 0.70 0.70 0.74 0.76 0.78 0.76 0.71 0.60 0.55 0.47 0.45 0.42 0.40 0.41 0.46 0.46 0.36 0.19 0.18 0.64 0.51 0.61 0.66 0.48 0.29 0.39 0.49 0.74 0.76 0.89 1.11 1.09 1.07 1.06 1.12 1.22 1.47
0.97 0.98 0.95 0.91 0.89 0.87 0.81 0.74 0.70 0.67 0.65 0.64 0.65 0.66 0.70 0.75 0.75 0.67 0.59 0.54 0.48 0.44 0.42 0.43 0.48 0.52 0.27 0.09 0.36 0.65 0.57 0.62 0.57 0.49 0.30 0.45 0.48 0.68 0.80 0.85 0.95 0.99 0.94 0.89 0.86 1.02 1.36
0.98 0.98 0.97 0.93 0.89 0.84 0.76 0.70 0.66 0.64 0.66 0.68 0.67 0.64 0.61 0.66 0.70 0.67 0.61 0.54 0.54 0.49 0.44 0.45 0.51 0.49 0.28 0.17 0.50 0.58 0.61 0.58 0.56 0.49 0.31 0.40 0.66 0.76 0.86 0.84 0.98 0.81 0.68 0.69 0.88 1.07 1.29
0.94 0.91 0.88 0.86 0.77 0.67 0.57 0.45 0.42 0.48 0.56 0.61 0.63 0.63 0.61 0.58 0.63 0.63 0.57 0.54 0.53 0.55 0.49 0.48 0.58 0.55 0.24 0.53 0.60 0.56 0.59 0.59 0.64 0.52 0.42 0.45 0.81 0.77 0.78 0.94 0.75 0.63 0.62 0.45 0.89 1.12 1.31
0.86 0.79 0.68 0.59 0.53 0.48 0.46 0.49 0.53 0.55 0.54 0.54 0.55 0.57 0.57 0.57 0.58 0.60 0.54 0.51 0.57 0.58 0.55 0.57 0.51 0.50 0.27 0.60 0.42 0.43 0.53 0.56 0.61 0.51 0.42 0.60 0.78 0.67 0.64 0.56 0.53 0.56 0.47 0.44 0.70 1.20 1.21
0.73 0.63 0.59 0.57 0.57 0.57 0.57 0.57 0.56 0.55 0.53 0.53 0.52 0.52 0.53 0.52 0.55 0.57 0.52 0.59 0.70 0.63 0.63 0.67 0.56 0.37 0.39 0.30 0.30 0.28 0.53 0.61 0.54 0.47 0.43 0.57 0.65 0.49 0.47 0.44 0.33 0.42 0.46 0.48 0.49 0.89 1.02
0.62 0.63 0.61 0.62 0.64 0.63 0.62 0.60 0.57 0.53 0.50 0.49 0.48 0.47 0.46 0.49 0.52 0.54 0.56 0.54 0.46 0.45 0.52 0.30 0.31 0.29 0.35 0.37 0.33 0.31 0.39 0.54 0.53 0.39 0.34 0.51 0.51 0.37 0.43 0.43 0.47 0.45 0.46 0.49 0.53 0.59 0.64
0.66 0.65 0.67 0.69 0.69 0.69 0.68 0.62 0.56 0.50 0.49 0.47 0.45 0.43 0.44 0.45 0.48 0.48 0.60 0.45 0.47 0.47 0.35 0.38 0.42 0.41 0.41 0.40 0.29 0.27 0.38 0.43 0.40 0.27 0.44 0.49 0.37 0.48 0.52 0.48 0.41 0.42 0.40 0.47 0.52 0.56 0.52
0.68 0.68 0.70 0.72 0.72 0.72 0.71 0.66 0.58 0.51 0.48 0.44 0.44 0.45 0.45 0.40 0.42 0.50 0.47 0.50 0.57 0.53 0.33 0.34 0.39 0.36 0.32 0.33 0.27 0.32 0.40 0.43 0.39 0.33 0.40 0.39 0.40 0.51 0.46 0.45 0.35 0.32 0.36 0.46 0.44 0.45 0.64
0.71 0.71 0.73 0.75 0.74 0.75 0.74 0.72 0.67 0.57 0.50 0.46 0.47 0.48 0.44 0.37 0.35 0.45 0.47 0.56 0.59 0.50 0.25 0.26 0.33 0.36 0.32 0.25 0.22 0.42 0.44 0.46 0.44 0.35 0.42 0.39 0.47 0.42 0.42 0.39 0.41 0.27 0.45 0.47 0.42 0.34 0.26
0.70 0.71 0.70 0.76 0.77 0.78 0.75 0.72 0.71 0.66 0.55 0.48 0.49 0.49 0.41 0.44 0.44 0.42 0.52 0.59 0.54 0.40 0.16 0.25 0.31 0.32 0.30 0.23 0.30 0.36 0.46 0.44 0.38 0.41 0.44 0.36 0.36 0.38 0.35 0.36 0.42 0.32 0.41 0.43 0.40 0.32 0.34
0.70 0.68 0.69 0.75 0.78 0.78 0.73 0.71 0.71 0.69 0.62 0.51 0.52 0.49 0.44 0.48 0.48 0.50 0.55 0.59 0.42 0.26 0.21 0.26 0.27 0.25 0.25 0.27 0.29 0.31 0.31 0.42 0.41 0.37 0.38 0.35 0.37 0.35 0.34 0.40 0.40 0.42 0.36 0.34 0.36 0.32 0.23
0.67 0.67 0.71 0.76 0.79 0.75 0.72 0.70 0.70 0.69 0.68 0.57 0.56 0.51 0.47 0.45 0.35 0.44 0.52 0.41 0.25 0.24 0.33 0.27 0.26 0.26 0.25 0.25 0.25 0.26 0.23 0.22 0.23 0.27 0.28 0.29 0.30 0.33 0.31 0.29 0.34 0.34 0.29 0.21 0.21 0.24 0.21
0.67 0.72 0.74 0.78 0.77 0.73 0.71 0.68 0.69 0.70 0.70 0.63 0.65 0.59 0.53 0.47 0.45 0.56 0.51 0.39 0.24 0.30 0.30 0.32 0.27 0.25 0.24 0.25 0.25 0.24 0.23 0.22 0.25 0.22 0.22 0.21 0.20 0.27 0.28 0.28 0.28 0.30 0.29 0.20 0.15 0.18 0.24
0.70 0.75 0.77 0.79 0.76 0.73 0.69 0.66 0.68 0.73 0.69 0.65 0.69 0.56 0.49 0.52 0.62 0.62 0.47 0.31 0.31 0.33 0.35 0.29 0.28 0.25 0.26 0.26 0.25 0.26 0.27 0.26 0.27 0.27 0.19 0.18 0.20 0.29 0.28 0.31 0.32 0.30 0.27 0.31 0.23 0.25 0.21
0.72 0.78 0.80 0.78 0.75 0.71 0.69 0.67 0.72 0.75 0.75 0.74 0.59 0.51 0.46 0.65 0.67 0.54 0.42 0.36 0.38 0.43 0.38 0.33 0.25 0.31 0.26 0.28 0.27 0.26 0.28 0.33 0.29 0.30 0.30 0.24 0.17 0.26 0.28 0.32 0.32 0.31 0.33 0.26 0.26 0.18 0.16
0.72 0.80 0.79 0.75 0.74 0.71 0.67 0.70 0.73 0.77 0.77 0.73 0.58 0.45 0.57 0.67 0.64 0.47 0.37 0.41 0.43 0.47 0.45 0.35 0.32 0.31 0.31 0.30 0.32 0.30 0.31 0.34 0.36 0.32 0.31 0.26 0.22 0.21 0.25 0.26 0.26 0.29 0.27 0.28 0.29 0.27 0.20
0.69 0.79 0.77 0.75 0.72 0.69 0.68 0.71 0.74 0.76 0.77 0.68 0.55 0.38 0.59 0.63 0.43 0.44 0.38 0.45 0.51 0.48 0.48 0.43 0.41 0.38 0.34 0.33 0.30 0.30 0.32 0.35 0.41 0.38 0.29 0.31 0.24 0.19 0.23 0.29 0.31 0.29 0.28 0.28 0.23 0.23 0.28
0.69 0.77 0.79 0.75 0.71 0.68 0.70 0.70 0.69 0.73 0.75 0.61 0.44 0.43 0.60 0.58 0.35 0.35 0.41 0.41 0.43 0.40 0.47 0.44 0.41 0.42 0.41 0.35 0.30 0.33 0.34 0.42 0.41 0.36 0.32 0.32 0.25 0.18 0.21 0.26 0.28 0.25 0.28 0.28 0.27 0.28 0.25
0.70 0.73 0.79 0.74 0.68 0.68 0.69 0.68 0.67 0.64 0.64 0.56 0.42 0.30 0.38 0.46 0.48 0.38 0.35 0.37 0.35 0.40 0.38 0.44 0.43 0.42 0.38 0.35 0.37 0.33 0.34 0.39 0.42 0.41 0.40 0.36 0.29 0.25 0.20 0.24 0.29 0.26 0.28 0.28 0.27 0.23 0.24
0.71 0.73 0.78 0.71 0.66 0.68 0.70 0.67 0.65 0.60 0.61 0.53 0.39 0.29 0.34 0.27 0.32 0.38 0.41 0.37 0.30 0.28 0.34 0.37 0.33 0.35 0.32 0.29 0.32 0.32 0.35 0.36 0.38 0.40 0.37 0.31 0.22 0.23 0.25 0.28 0.29 0.29 0.28 0.29 0.27 0.28 0.25
0.72 0.74 0.76 0.70 0.65 0.69 0.70 0.68 0.66 0.60 0.61 0.48 0.36 0.33 0.37 0.32 0.32 0.30 0.33 0.31 0.26 0.29 0.30 0.26 0.26 0.26 0.24 0.24 0.27 0.27 0.31 0.31 0.29 0.32 0.30 0.33 0.22 0.24 0.19 0.23 0.22 0.20 0.23 0.25 0.27 0.30 0.31
0.73 0.75 0.74 0.70 0.65 0.69 0.71 0.70 0.68 0.62 0.58 0.46 0.54 0.53 0.37 0.31 0.30 0.25 0.27 0.27 0.27 0.32 0.33 0.33 0.30 0.27 0.24 0.26 0.31 0.32 0.32 0.31 0.32 0.29 0.27 0.28 0.26 0.22 0.15 0.20 0.17 0.13 0.21 0.24 0.31 0.37 0.35
0.74 0.76 0.74 0.70 0.65 0.67 0.71 0.71 0.71 0.67 0.64 0.60 0.60 0.53 0.36 0.29 0.32 0.31 0.33 0.34 0.32 0.34 0.30 0.36 0.37 0.30 0.35 0.44 0.40 0.38 0.35 0.33 0.32 0.30 0.31 0.25 0.25 0.24 0.18 0.20 0.09 0.18 0.28 0.27 0.27 0.34 0.40
0.74 0.78 0.75 0.71 0.65 0.64 0.69 0.71 0.70 0.71 0.68 0.63 0.67 0.56 0.41 0.34 0.38 0.36 0.38 0.37 0.40 0.38 0.33 0.34 0.38 0.40 0.45 0.37 0.30 0.27 0.28 0.30 0.32 0.36 0.35 0.33 0.27 0.21 0.17 0.17 0.19 0.21 0.24 0.25 0.26 0.25 0.38
0.76 0.77 0.75 0.69 0.64 0.63 0.67 0.70 0.71 0.73 0.72 0.66 0.65 0.69 0.56 0.40 0.38 0.43 0.39 0.38 0.34 0.29 0.30 0.35 0.43 0.46 0.41 0.34 0.28 0.21 0.20 0.26 0.25 0.28 0.38 0.36 0.35 0.24 0.23 0.16 0.11 0.21 0.34 0.42 0.41 0.21 0.40
0.79 0.77 0.75 0.68 0.65 0.62 0.65 0.67 0.72 0.72 0.72 0.68 0.64 0.71 0.57 0.43 0.51 0.44 0.32 0.32 0.40 0.35 0.30 0.34 0.36 0.36 0.41 0.30 0.25 0.23 0.23 0.33 0.22 0.21 0.24 0.26 0.27 0.22 0.22 0.19 0.22 0.35 0.39 0.44 0.25 0.23 0.43
0.78 0.76 0.75 0.69 0.63 0.62 0.63 0.65 0.67 0.69 0.65 0.67 0.64 0.72 0.57 0.47 0.52 0.55 0.49 0.42 0.39 0.37 0.29 0.34 0.33 0.31 0.28 0.23 0.25 0.27 0.25 0.27 0.25 0.28 0.27 0.24 0.22 0.22 0.25 0.21 0.17 0.45 0.41 0.31 0.39 0.48 0.49
0.76 0.75 0.73 0.70 0.65 0.68 0.64 0.63 0.64 0.65 0.64 0.65 0.56 0.70 0.73 0.51 0.48 0.65 0.65 0.62 0.58 0.49 0.42 0.40 0.31 0.32 0.30 0.23 0.24 0.26 0.25 0.31 0.30 0.22 0.36 0.23 0.30 0.25 0.29 0.28 0.46 0.51 0.45 0.49 0.51 0.48 0.49

GFSGBSN_prec_pwat_072.txt.gz
Precipitable_Water
0.93 0.94 0.94 0.92 0.89 0.86 0.82 0.74 0.67 0.63 0.63 0.67 0.68 0.67 0.64 0.66 0.71 0.75 0.70 0.60 0.54 0.50 0.45 0.44 0.45 0.47 0.35 0.16 0.16 0.65 0.39 0.55 0.81 0.57 0.39 0.36 0.41 0.64 0.72 0.92 1.14 1.16 1.15 1.16 1.13 1.28 1.38
0.89 0.90 0.88 0.88 0.84 0.77 0.69 0.62 0.56 0.53 0.57 0.62 0.65 0.66 0.65 0.61 0.59 0.66 0.68 0.63 0.57 0.53 0.51 0.47 0.48 0.52 0.26 0.09 0.33 0.64 0.52 0.57 0.61 0.55 0.36 0.40 0.47 0.69 0.76 0.86 0.99 1.06 0.98 0.90 0.92 0.98 1.21
0.84 0.77 0.71 0.65 0.58 0.52 0.49 0.48 0.51 0.54 0.54 0.54 0.56 0.58 0.58 0.59 0.59 0.57 0.62 0.59 0.55 0.56 0.54 0.51 0.54 0.47 0.25 0.13 0.54 0.62 0.62 0.54 0.59 0.49 0.32 0.44 0.59 0.76 0.88 0.84 1.06 0.92 0.72 0.75 0.94 1.06 1.19
0.73 0.64 0.59 0.59 0.57 0.57 0.57 0.58 0.56 0.55 0.54 0.53 0.52 0.51 0.52 0.52 0.53 0.56 0.56 0.55 0.52 0.55 0.57 0.56 0.59 0.54 0.25 0.47 0.64 0.54 0.61 0.55 0.56 0.57 0.45 0.46 0.70 0.69 0.79 0.92 0.80 0.67 0.66 0.52 0.90 1.14 1.29
0.65 0.65 0.65 0.65 0.65 0.65 0.64 0.62 0.59 0.55 0.51 0.49 0.49 0.49 0.47 0.48 0.50 0.53 0.51 0.54 0.63 0.60 0.60 0.65 0.50 0.49 0.29 0.60 0.48 0.55 0.56 0.55 0.53 0.53 0.47 0.45 0.66 0.66 0.65 0.63 0.55 0.62 0.49 0.46 0.68 1.15 1.18
0.67 0.66 0.68 0.69 0.69 0.70 0.69 0.67 0.61 0.54 0.50 0.48 0.47 0.45 0.43 0.46 0.50 0.52 0.48 0.58 0.74 0.68 0.64 0.66 0.61 0.40 0.41 0.35 0.41 0.49 0.63 0.64 0.53 0.42 0.39 0.42 0.49 0.48 0.53 0.49 0.36 0.46 0.46 0.47 0.53 0.93 1.05
0.69 0.70 0.71 0.73 0.73 0.73 0.71 0.69 0.66 0.60 0.53 0.50 0.47 0.45 0.46 0.47 0.46 0.48 0.47 0.52 0.40 0.46 0.51 0.28 0.29 0.32 0.42 0.42 0.36 0.35 0.57 0.59 0.51 0.36 0.27 0.41 0.41 0.31 0.41 0.50 0.51 0.50 0.49 0.47 0.51 0.65 0.78
0.72 0.72 0.72 0.72 0.75 0.75 0.73 0.72 0.72 0.68 0.58 0.52 0.48 0.48 0.48 0.43 0.40 0.42 0.55 0.40 0.42 0.47 0.36 0.41 0.37 0.40 0.46 0.43 0.29 0.35 0.61 0.45 0.42 0.25 0.32 0.40 0.39 0.51 0.55 0.51 0.48 0.48 0.46 0.48 0.52 0.59 0.60
0.71 0.70 0.69 0.72 0.76 0.75 0.74 0.73 0.71 0.69 0.62 0.54 0.50 0.50 0.46 0.38 0.39 0.43 0.41 0.44 0.55 0.54 0.36 0.34 0.33 0.37 0.38 0.40 0.29 0.27 0.44 0.47 0.38 0.29 0.32 0.36 0.45 0.64 0.52 0.47 0.41 0.42 0.42 0.45 0.45 0.46 0.75
0.68 0.67 0.69 0.72 0.75 0.75 0.74 0.71 0.70 0.70 0.67 0.56 0.53 0.52 0.43 0.41 0.33 0.42 0.38 0.52 0.59 0.54 0.27 0.25 0.29 0.36 0.36 0.34 0.27 0.37 0.44 0.49 0.43 0.31 0.38 0.45 0.53 0.51 0.46 0.41 0.42 0.31 0.45 0.46 0.46 0.39 0.31
0.68 0.69 0.72 0.74 0.76 0.74 0.71 0.67 0.67 0.70 0.69 0.60 0.56 0.52 0.44 0.49 0.41 0.37 0.43 0.56 0.53 0.43 0.17 0.25 0.33 0.40 0.35 0.28 0.32 0.37 0.51 0.49 0.43 0.39 0.40 0.40 0.48 0.39 0.38 0.39 0.46 0.34 0.49 0.46 0.43 0.38 0.39
0.69 0.74 0.75 0.77 0.76 0.73 0.69 0.65 0.65 0.68 0.68 0.62 0.58 0.51 0.49 0.44 0.46 0.45 0.54 0.55 0.48 0.28 0.21 0.26 0.33 0.30 0.29 0.29 0.31 0.38 0.40 0.46 0.48 0.40 0.42 0.43 0.40 0.42 0.40 0.43 0.45 0.44 0.40 0.40 0.38 0.34 0.26
0.71 0.76 0.78 0.77 0.75 0.71 0.66 0.63 0.68 0.69 0.66 0.66 0.62 0.56 0.50 0.46 0.33 0.46 0.54 0.46 0.27 0.27 0.33 0.26 0.25 0.26 0.25 0.30 0.34 0.32 0.33 0.36 0.33 0.28 0.31 0.34 0.33 0.32 0.33 0.31 0.38 0.38 0.32 0.26 0.25 0.25 0.23
0.71 0.79 0.80 0.77 0.73 0.68 0.65 0.66 0.72 0.70 0.67 0.68 0.65 0.57 0.55 0.55 0.62 0.62 0.52 0.39 0.26 0.33 0.31 0.33 0.27 0.26 0.24 0.29 0.29 0.29 0.26 0.28 0.31 0.34 0.30 0.26 0.21 0.28 0.32 0.30 0.28 0.30 0.31 0.23 0.18 0.21 0.24
0.71 0.80 0.80 0.76 0.72 0.67 0.66 0.69 0.73 0.74 0.74 0.69 0.63 0.50 0.51 0.58 0.67 0.62 0.44 0.31 0.34 0.36 0.37 0.31 0.29 0.24 0.25 0.28 0.29 0.30 0.29 0.27 0.27 0.29 0.26 0.26 0.24 0.29 0.31 0.33 0.32 0.30 0.27 0.34 0.25 0.26 0.23
0.70 0.79 0.78 0.75 0.71 0.66 0.69 0.72 0.74 0.74 0.73 0.69 0.55 0.54 0.51 0.61 0.69 0.54 0.42 0.36 0.40 0.46 0.40 0.34 0.25 0.28 0.25 0.26 0.27 0.30 0.30 0.33 0.29 0.30 0.30 0.26 0.22 0.27 0.28 0.30 0.33 0.31 0.34 0.27 0.27 0.19 0.17
0.71 0.76 0.78 0.74 0.70 0.67 0.68 0.70 0.71 0.71 0.69 0.67 0.53 0.43 0.57 0.64 0.62 0.48 0.35 0.40 0.43 0.49 0.44 0.36 0.32 0.30 0.29 0.28 0.30 0.29 0.31 0.35 0.36 0.32 0.31 0.28 0.23 0.23 0.27 0.27 0.26 0.28 0.29 0.29 0.30 0.26 0.19
0.70 0.74 0.79 0.74 0.68 0.68 0.68 0.67 0.63 0.64 0.65 0.60 0.45 0.32 0.57 0.60 0.41 0.43 0.43 0.44 0.50 0.47 0.49 0.42 0.40 0.36 0.33 0.34 0.32 0.31 0.32 0.35 0.41 0.36 0.29 0.30 0.25 0.21 0.24 0.30 0.32 0.31 0.30 0.30 0.26 0.23 0.26
0.70 0.72 0.78 0.72 0.67 0.68 0.68 0.66 0.63 0.56 0.59 0.53 0.38 0.37 0.50 0.53 0.34 0.35 0.43 0.46 0.46 0.44 0.42 0.43 0.41 0.41 0.41 0.35 0.31 0.36 0.39 0.43 0.44 0.40 0.33 0.31 0.24 0.19 0.22 0.25 0.28 0.26 0.29 0.31 0.30 0.30 0.25
0.71 0.73 0.78 0.72 0.66 0.70 0.69 0.67 0.61 0.56 0.60 0.51 0.36 0.23 0.33 0.39 0.43 0.37 0.35 0.37 0.37 0.43 0.41 0.47 0.45 0.45 0.40 0.37 0.40 0.36 0.37 0.42 0.44 0.45 0.44 0.38 0.29 0.23 0.17 0.21 0.26 0.24 0.26 0.27 0.27 0.24 0.24
0.73 0.76 0.77 0.71 0.66 0.71 0.70 0.67 0.62 0.56 0.58 0.47 0.33 0.27 0.32 0.23 0.29 0.34 0.37 0.34 0.27 0.25 0.35 0.41 0.41 0.41 0.38 0.33 0.35 0.36 0.40 0.40 0.42 0.44 0.42 0.37 0.29 0.31 0.31 0.30 0.29 0.28 0.27 0.26 0.23 0.26 0.24
0.74 0.76 0.79 0.72 0.67 0.69 0.70 0.67 0.63 0.57 0.55 0.41 0.32 0.29 0.36 0.32 0.33 0.27 0.30 0.27 0.24 0.28 0.27 0.25 0.26 0.32 0.34 0.33 0.35 0.32 0.36 0.36 0.34 0.38 0.34 0.35 0.25 0.26 0.24 0.29 0.27 0.23 0.26 0.26 0.24 0.26 0.28
0.75 0.77 0.79 0.74 0.65 0.69 0.71 0.69 0.65 0.60 0.55 0.44 0.50 0.46 0.34 0.31 0.29 0.24 0.25 0.26 0.28 0.31 0.31 0.32 0.28 0.25 0.22 0.26 0.33 0.36 0.38 0.36 0.35 0.30 0.26 0.26 0.23 0.20 0.15 0.23 0.20 0.16 0.21 0.23 0.27 0.31 0.31
0.81 0.77 0.81 0.75 0.66 0.66 0.71 0.69 0.68 0.65 0.62 0.56 0.53 0.43 0.33 0.28 0.30 0.28 0.32 0.33 0.31 0.32 0.28 0.34 0.35 0.29 0.36 0.43 0.39 0.37 0.35 0.33 0.32 0.29 0.29 0.23 0.22 0.21 0.17 0.18 0.09 0.20 0.28 0.24 0.23 0.26 0.31
0.89 0.79 0.82 0.74 0.68 0.63 0.69 0.69 0.69 0.68 0.67 0.59 0.60 0.48 0.37 0.29 0.34 0.33 0.34 0.35 0.37 0.33 0.30 0.32 0.36 0.40 0.44 0.38 0.29 0.26 0.27 0.28 0.31 0.34 0.30 0.29 0.24 0.18 0.14 0.13 0.18 0.22 0.27 0.26 0.23 0.21 0.31
1.03 0.85 0.83 0.76 0.67 0.62 0.65 0.68 0.70 0.68 0.69 0.63 0.60 0.62 0.46 0.36 0.30 0.37 0.32 0.33 0.28 0.26 0.27 0.31 0.40 0.44 0.38 0.31 0.27 0.19 0.18 0.24 0.23 0.27 0.37 0.35 0.32 0.21 0.19 0.13 0.10 0.20 0.32 0.38 0.35 0.15 0.35
1.06 0.87 0.82 0.77 0.67 0.61 0.63 0.64 0.69 0.65 0.68 0.66 0.59 0.66 0.48 0.37 0.44 0.40 0.29 0.27 0.36 0.32 0.26 0.31 0.32 0.32 0.37 0.27 0.23 0.21 0.21 0.31 0.22 0.22 0.24 0.26 0.26 0.21 0.20 0.17 0.20 0.31 0.37 0.42 0.18 0.20 0.40
0.98 0.82 0.80 0.77 0.68 0.63 0.63 0.62 0.62 0.64 0.62 0.65 0.60 0.68 0.52 0.40 0.46 0.50 0.48 0.37 0.37 0.35 0.26 0.30 0.29 0.26 0.23 0.18 0.20 0.22 0.22 0.26 0.25 0.27 0.26 0.23 0.20 0.20 0.23 0.19 0.15 0.39 0.37 0.26 0.35 0.43 0.43
0.90 0.80 0.77 0.76 0.67 0.66 0.66 0.63 0.61 0.60 0.60 0.60 0.52 0.63 0.70 0.48 0.42 0.59 0.60 0.62 0.55 0.53 0.40 0.39 0.29 0.29 0.26 0.20 0.21 0.22 0.19 0.24 0.25 0.20 0.35 0.22 0.28 0.24 0.26 0.24 0.39 0.45 0.42 0.46 0.48 0.44 0.45

GFSGBSN_prec_pwat_078.txt.gz
Precipitable_Water
0.66 0.63 0.64 0.65 0.66 0.65 0.64 0.63 0.62 0.60 0.57 0.54 0.53 0.52 0.52 0.52 0.53 0.55 0.58 0.58 0.62 0.67 0.62 0.56 0.53 0.48 0.39 0.21 0.15 0.62 0.51 0.46 0.71 0.63 0.51 0.47 0.66 0.76 0.85 1.13 1.31 1.19 1.20 1.20 1.25 1.40 1.51
0.67 0.68 0.69 0.70 0.71 0.70 0.70 0.69 0.68 0.65 0.60 0.56 0.51 0.50 0.50 0.50 0.50 0.50 0.51 0.55 0.56 0.59 0.60 0.59 0.58 0.52 0.29 0.14 0.40 0.62 0.41 0.45 0.69 0.53 0.43 0.44 0.49 0.79 0.85 1.08 1.08 1.18 1.19 1.03 1.06 1.26 1.41
0.71 0.72 0.73 0.73 0.74 0.74 0.72 0.71 0.71 0.69 0.63 0.56 0.53 0.52 0.51 0.48 0.47 0.49 0.50 0.51 0.53 0.54 0.55 0.58 0.62 0.53 0.27 0.22 0.57 0.53 0.60 0.56 0.65 0.52 0.40 0.45 0.49 0.61 0.85 0.85 1.07 1.10 0.89 0.97 1.05 1.08 1.24
0.73 0.73 0.71 0.71 0.72 0.74 0.74 0.73 0.72 0.71 0.70 0.62 0.56 0.54 0.53 0.52 0.50 0.48 0.48 0.48 0.53 0.54 0.54 0.55 0.63 0.57 0.31 0.44 0.70 0.54 0.61 0.63 0.60 0.59 0.53 0.59 0.59 0.63 0.75 0.95 0.86 0.91 0.80 0.66 1.02 1.12 1.27
0.71 0.70 0.70 0.70 0.72 0.74 0.74 0.73 0.72 0.71 0.71 0.66 0.59 0.55 0.55 0.54 0.52 0.48 0.45 0.52 0.61 0.58 0.55 0.62 0.53 0.54 0.34 0.56 0.55 0.59 0.61 0.49 0.50 0.51 0.56 0.60 0.55 0.57 0.65 0.59 0.60 0.77 0.65 0.58 0.84 1.19 1.21
0.69 0.70 0.73 0.72 0.74 0.74 0.73 0.71 0.70 0.69 0.69 0.68 0.60 0.57 0.55 0.53 0.49 0.43 0.41 0.53 0.64 0.68 0.64 0.63 0.59 0.37 0.46 0.36 0.53 0.57 0.55 0.54 0.43 0.42 0.38 0.42 0.48 0.40 0.50 0.54 0.41 0.59 0.60 0.54 0.75 1.02 1.15
0.70 0.74 0.75 0.75 0.76 0.75 0.72 0.69 0.66 0.66 0.68 0.67 0.61 0.57 0.55 0.50 0.43 0.39 0.42 0.48 0.39 0.46 0.45 0.32 0.30 0.37 0.43 0.55 0.59 0.54 0.59 0.47 0.46 0.38 0.28 0.34 0.34 0.24 0.31 0.54 0.65 0.70 0.62 0.58 0.70 1.02 1.01
0.72 0.76 0.78 0.75 0.75 0.73 0.70 0.67 0.64 0.65 0.67 0.68 0.61 0.56 0.53 0.46 0.42 0.47 0.47 0.34 0.35 0.39 0.28 0.39 0.32 0.36 0.45 0.54 0.44 0.49 0.64 0.45 0.36 0.28 0.32 0.28 0.26 0.30 0.39 0.57 0.56 0.59 0.53 0.49 0.56 0.72 0.73
0.72 0.76 0.77 0.75 0.74 0.72 0.68 0.63 0.66 0.68 0.67 0.63 0.60 0.55 0.46 0.45 0.47 0.46 0.40 0.38 0.46 0.46 0.28 0.30 0.35 0.31 0.39 0.41 0.42 0.47 0.52 0.52 0.33 0.29 0.28 0.25 0.29 0.40 0.47 0.49 0.41 0.50 0.57 0.51 0.50 0.56 0.74
0.72 0.73 0.77 0.75 0.73 0.68 0.65 0.67 0.70 0.69 0.68 0.64 0.56 0.50 0.46 0.47 0.41 0.43 0.38 0.46 0.50 0.47 0.22 0.24 0.27 0.27 0.38 0.39 0.33 0.55 0.52 0.50 0.36 0.29 0.32 0.27 0.46 0.44 0.45 0.42 0.39 0.38 0.59 0.55 0.47 0.46 0.49
0.74 0.72 0.78 0.77 0.71 0.67 0.68 0.70 0.70 0.70 0.71 0.67 0.59 0.53 0.49 0.49 0.42 0.40 0.42 0.53 0.51 0.44 0.16 0.24 0.30 0.40 0.42 0.34 0.39 0.47 0.58 0.54 0.37 0.30 0.32 0.31 0.43 0.44 0.43 0.45 0.45 0.44 0.55 0.53 0.47 0.44 0.40
0.75 0.71 0.78 0.76 0.70 0.70 0.71 0.73 0.72 0.70 0.70 0.68 0.61 0.57 0.52 0.45 0.46 0.44 0.51 0.57 0.42 0.29 0.24 0.27 0.32 0.32 0.33 0.32 0.36 0.52 0.59 0.54 0.58 0.37 0.34 0.43 0.53 0.60 0.53 0.53 0.50 0.54 0.44 0.47 0.45 0.38 0.30
0.82 0.70 0.77 0.75 0.68 0.70 0.71 0.71 0.72 0.73 0.70 0.65 0.60 0.56 0.55 0.59 0.45 0.56 0.56 0.45 0.30 0.30 0.37 0.29 0.29 0.32 0.30 0.31 0.35 0.42 0.43 0.38 0.43 0.31 0.30 0.42 0.47 0.57 0.62 0.54 0.55 0.48 0.34 0.28 0.28 0.23 0.24
1.01 0.71 0.77 0.75 0.69 0.70 0.70 0.67 0.66 0.69 0.70 0.65 0.58 0.62 0.62 0.63 0.65 0.61 0.54 0.42 0.30 0.38 0.37 0.38 0.34 0.32 0.29 0.34 0.38 0.41 0.41 0.40 0.45 0.42 0.35 0.29 0.28 0.40 0.43 0.45 0.43 0.41 0.34 0.26 0.24 0.21 0.25
1.21 0.72 0.75 0.77 0.69 0.71 0.70 0.68 0.63 0.62 0.65 0.62 0.63 0.62 0.58 0.62 0.65 0.64 0.48 0.36 0.34 0.39 0.39 0.37 0.36 0.29 0.30 0.35 0.38 0.43 0.41 0.40 0.37 0.43 0.39 0.37 0.30 0.37 0.36 0.37 0.40 0.40 0.33 0.40 0.34 0.33 0.29
1.30 0.73 0.72 0.76 0.69 0.72 0.70 0.66 0.62 0.57 0.55 0.62 0.53 0.53 0.50 0.63 0.67 0.58 0.48 0.39 0.43 0.47 0.42 0.43 0.34 0.34 0.29 0.33 0.37 0.41 0.40 0.43 0.40 0.43 0.47 0.43 0.29 0.32 0.34 0.34 0.37 0.42 0.44 0.31 0.30 0.24 0.24
1.33 0.74 0.71 0.76 0.69 0.73 0.70 0.65 0.59 0.53 0.52 0.57 0.50 0.40 0.51 0.59 0.64 0.51 0.42 0.44 0.46 0.49 0.46 0.40 0.36 0.34 0.36 0.36 0.37 0.36 0.40 0.44 0.47 0.43 0.45 0.37 0.32 0.29 0.35 0.32 0.30 0.32 0.33 0.32 0.32 0.30 0.25
1.36 0.77 0.70 0.76 0.69 0.74 0.69 0.65 0.58 0.52 0.52 0.50 0.39 0.31 0.48 0.56 0.43 0.46 0.43 0.47 0.50 0.46 0.49 0.43 0.43 0.37 0.39 0.35 0.34 0.34 0.34 0.38 0.44 0.40 0.37 0.40 0.33 0.26 0.29 0.33 0.36 0.34 0.33 0.35 0.28 0.27 0.29
1.38 0.81 0.70 0.76 0.70 0.75 0.69 0.64 0.58 0.54 0.52 0.43 0.33 0.30 0.42 0.47 0.34 0.37 0.44 0.47 0.49 0.46 0.46 0.45 0.39 0.41 0.41 0.37 0.32 0.36 0.36 0.43 0.45 0.38 0.36 0.35 0.31 0.24 0.24 0.28 0.34 0.33 0.33 0.34 0.34 0.36 0.28
1.38 0.95 0.69 0.75 0.70 0.74 0.69 0.66 0.59 0.54 0.50 0.43 0.31 0.25 0.32 0.38 0.40 0.36 0.37 0.39 0.42 0.48 0.47 0.48 0.45 0.44 0.41 0.38 0.39 0.37 0.37 0.40 0.44 0.42 0.39 0.36 0.31 0.30 0.23 0.27 0.29 0.28 0.31 0.33 0.32 0.29 0.34
1.39 1.12 0.70 0.76 0.73 0.74 0.69 0.65 0.59 0.55 0.50 0.45 0.33 0.25 0.30 0.25 0.28 0.33 0.36 0.32 0.28 0.30 0.39 0.46 0.43 0.45 0.42 0.37 0.38 0.38 0.41 0.41 0.44 0.42 0.40 0.38 0.29 0.30 0.30 0.30 0.30 0.29 0.27 0.29 0.31 0.34 0.32
1.41 1.22 0.75 0.76 0.76 0.72 0.70 0.67 0.62 0.55 0.54 0.37 0.31 0.30 0.32 0.27 0.31 0.28 0.24 0.26 0.25 0.26 0.30 0.29 0.38 0.44 0.46 0.41 0.42 0.37 0.42 0.45 0.43 0.45 0.42 0.40 0.31 0.31 0.26 0.28 0.27 0.25 0.27 0.28 0.26 0.30 0.35
1.39 1.18 0.85 0.80 0.81 0.69 0.70 0.68 0.64 0.57 0.55 0.41 0.43 0.37 0.34 0.28 0.27 0.25 0.25 0.27 0.27 0.31 0.29 0.30 0.30 0.37 0.42 0.45 0.50 0.50 0.50 0.48 0.45 0.43 0.42 0.41 0.37 0.30 0.24 0.27 0.22 0.18 0.22 0.25 0.28 0.30 0.31
1.39 1.17 1.02 1.00 0.86 0.70 0.68 0.69 0.65 0.63 0.59 0.53 0.47 0.43 0.33 0.22 0.27 0.27 0.30 0.30 0.28 0.30 0.29 0.33 0.32 0.29 0.32 0.44 0.47 0.47 0.45 0.44 0.44 0.41 0.42 0.38 0.39 0.35 0.30 0.27 0.17 0.28 0.31 0.27 0.28 0.36 0.37
1.39 1.19 1.08 1.09 0.88 0.73 0.65 0.70 0.64 0.65 0.63 0.55 0.56 0.46 0.37 0.24 0.27 0.29 0.31 0.28 0.28 0.30 0.30 0.31 0.33 0.38 0.41 0.37 0.27 0.23 0.23 0.24 0.26 0.28 0.29 0.34 0.30 0.25 0.23 0.21 0.27 0.29 0.31 0.28 0.27 0.32 0.40
1.35 1.27 1.10 0.91 0.89 0.73 0.63 0.65 0.65 0.60 0.65 0.62 0.56 0.57 0.45 0.33 0.27 0.30 0.30 0.33 0.26 0.25 0.28 0.29 0.41 0.42 0.41 0.33 0.29 0.22 0.19 0.25 0.22 0.24 0.29 0.28 0.31 0.24 0.21 0.18 0.16 0.28 0.34 0.39 0.36 0.29 0.41
1.29 1.18 0.97 0.83 0.84 0.73 0.64 0.63 0.61 0.60 0.60 0.64 0.57 0.63 0.47 0.37 0.38 0.37 0.30 0.29 0.34 0.29 0.26 0.30 0.32 0.32 0.39 0.31 0.28 0.26 0.24 0.31 0.21 0.22 0.23 0.25 0.25 0.21 0.21 0.19 0.22 0.33 0.34 0.35 0.17 0.30 0.44
1.21 1.02 0.84 0.85 0.82 0.73 0.68 0.64 0.60 0.58 0.56 0.58 0.56 0.63 0.54 0.39 0.43 0.44 0.43 0.34 0.33 0.34 0.29 0.31 0.29 0.26 0.25 0.23 0.25 0.24 0.26 0.28 0.27 0.32 0.29 0.28 0.26 0.25 0.26 0.23 0.19 0.39 0.34 0.25 0.40 0.45 0.41
1.04 0.90 0.80 0.83 0.81 0.74 0.70 0.67 0.62 0.59 0.58 0.56 0.49 0.60 0.64 0.51 0.49 0.55 0.55 0.58 0.53 0.49 0.38 0.35 0.32 0.28 0.27 0.25 0.26 0.26 0.21 0.25 0.24 0.21 0.33 0.27 0.32 0.31 0.29 0.31 0.44 0.40 0.43 0.45 0.44 0.40 0.39